This demonstration page uses our WeatherBlox Daily Observations layout. Learn more.

Left ArrowRight Arrow

38.88101, -77.10428

Hourly Observations for December 16, 2015

Temp ( °F °C ) Dew Point ( °F °C ) Humidity (%) Winds ( mph kmh ) Pressure ( in mb ) Visibility ( mi km ) Precip ( " mm )
12:52 am 00:52 Partly Cloudy 47 8.3 36 2.2 66 66 NNW 6 9 30.01 1016 10 16 N/A
1:52 am 01:52 Mostly Cloudy 46 7.8 37 2.8 71 71 NNW 7 11 30.02 1017 10 16 N/A
2:52 am 02:52 Clear 45 7.2 38 3.3 77 77 N 7 11 30.02 1017 10 16 N/A
3:52 am 03:52 Clear 44 6.7 37 2.8 76 76 N 7 11 30.03 1017 10 16 N/A
4:52 am 04:52 Mostly Clear 46 7.8 37 2.8 71 71 NNW 6 9 30.05 1018 10 16 N/A
5:52 am 05:52 Mostly Clear 42 5.6 37 2.8 82 82 WSW 3 6 30.06 1018 10 16 N/A
6:52 am 06:52 Partly Cloudy 44 6.7 37 2.8 76 76 SSW 3 6 30.11 1020 10 16 N/A
7:52 am 07:52 Cloudy 44 6.7 38 3.3 79 79 S 5 7 30.12 1020 10 16 N/A
8:52 am 08:52 Mostly Cloudy 47 8.3 41 5 80 80 N N/A 30.14 1021 10 16 N/A
9:52 am 09:52 Partly Cloudy 118 47.8 40 4.4 7 7 N N/A 30.15 1021 10 16 N/A
10:52 am 10:52 Mostly Sunny 54 12.2 40 4.4 59 59 NNE 6 9 30.13 1020 10 16 N/A
11:52 am 11:52 Partly Cloudy 56 13.3 40 4.4 55 55 N N/A 30.11 1020 10 16 N/A
12:52 pm 12:52 Partly Cloudy 55 12.8 40 4.4 57 57 N N/A 30.09 1019 10 16 N/A
1:52 pm 13:52 Mostly Sunny 56 13.3 40 4.4 55 55 S 6 9 30.08 1019 10 16 N/A
2:52 pm 14:52 Mostly Sunny 57 13.9 40 4.4 53 53 S 7 11 30.06 1018 10 16 N/A
3:52 pm 15:52 Partly Cloudy 55 12.8 42 5.6 62 62 S 6 9 30.06 1018 10 16 N/A
4:52 pm 16:52 Clear 53 11.7 40 4.4 61 61 SSW 8 13 30.06 1018 10 16 N/A
5:52 pm 17:52 Mostly Cloudy 51 10.6 43 6.1 74 74 SSE 7 11 30.07 1018 10 16 N/A
6:52 pm 18:52 Mostly Cloudy 51 10.6 41 5 69 69 SE 7 11 30.08 1019 10 16 N/A
7:52 pm 19:52 Mostly Cloudy 50 10 41 5 71 71 SSE 7 11 30.09 1019 10 16 N/A
8:52 pm 20:52 Mostly Cloudy 50 10 42 5.6 74 74 S 10 17 30.09 1019 10 16 N/A
9:52 pm 21:52 Mostly Cloudy 48 8.9 42 5.6 80 80 SSW 9 15 30.09 1019 10 16 N/A
10:52 pm 22:52 Mostly Clear 48 8.9 42 5.6 80 80 SSE 5 7 30.06 1018 10 16 N/A
11:52 pm 23:52 Mostly Clear 47 8.3 42 5.6 83 83 SSE 6 9 30.04 1017 10 16 N/A

Powered by AerisWeather